Overview Statistics Trail Chart Weather Telemetry Raw packets
 

This is the latest recevied weather packets stored in our database for station/object KD5GAT-51. If no packets are shown the sender has not sent any weather packets the latest 10 day(s).

<< 6 7 8 9 10 11 12 >>
Time Temp. Humidity Pressure Rain* Wind** Luminosity Snow
1788216192 40.56° C 33% 1014.4 hPa - - - -
1788215292 40.56° C 31% 1014.5 hPa - - - -
1788214392 41.11° C 31% 1014.6 hPa - - - -
1788213491 41.67° C 31% 1014.7 hPa - - - -
1788212591 41.11° C 32% 1015.1 hPa - - - -
1788211691 41.11° C 32% 1015.3 hPa - - - -
1788210791 40° C 33% 1015.5 hPa - - - -
1788209890 40.56° C 33% 1015.6 hPa - - - -
1788208990 40.56° C 35% 1015.9 hPa - - - -
1788208090 40° C 35% 1016.3 hPa - - - -
1788207190 40° C 35% 1016.6 hPa - - - -
1788206290 38.89° C 40% 1016.9 hPa - - - -
1788205390 39.44° C 39% 1017.2 hPa - - - -
1788204489 40° C 39% 1017.3 hPa - - - -
1788203588 39.44° C 42% 1017.7 hPa - - - -
1787969782 23.33° C 100% 1020.6 hPa - - - -
1787969237 25° C 100% 1020.6 hPa - - - -
1787968337 29.44° C 100% 1018.5 hPa - - - -
1787967437 31.11° C 100% 1017 hPa - - - -
1787966537 32.78° C 91% 1016.5 hPa - - - -
1787965636 33.33° C 81% 1016.6 hPa - - - -
1787964736 34.44° C 60% 1016.5 hPa - - - -
1787963836 35° C 48% 1015.8 hPa - - - -
1787962936 35.56° C 46% 1015.7 hPa - - - -
1787962036 36.11° C 44% 1015.6 hPa - - - -

* Rain since midnight (hover to see other rain measurements)
** Current wind speed in m/s (hover to see current wind gust speed)